Fort Collins, CO

8:45 AM MST on December 14, 2019 (GMT -0700)
Fort Collins-Loveland Municipal

Weather History for KFNL - October, 2019

Change the Weather History Date:

Monday, October 28, 2019

  Actual Average Record
Temperature  
Mean Temperature 23 °F -  
Max Temperature 30 °F - 79 °F (2016)
Min Temperature 16 °F - 16 °F (2019)
Degree Days  
Heating Degree Days 42    
Month to date heating degree days 518  
Cooling Degree Days 0    
Month to date cooling degree days 0  
Moisture  
Dew Point 17 °F    
Average Humidity 78    
Maximum Humidity 92    
Minimum Humidity 63    
Precipitation  
Precipitation 0.02 in - 0.54 in (1998)
Snow  
Snow 0.00 in - - ()
Snow Depth 0.00 in    
Sea Level Pressure  
Sea Level Pressure 30.12 in    
Wind  
Wind Speed 5 mph (SSE)    
Max Wind Speed 10 mph    
Max Gust Speed -    
Visibility 8 miles    
Events Snow    
T = Trace of Precipitation, MM = Missing Value Source: NWS Daily Summary

Daily Weather History Graph

Daily Weather History Graph

Search for Another Location

Airport or City:

Astronomy

Oct. 28, 2019 Rise Set
Actual Time 7:25 AM MDT 6:01 PM MDT
Civil Twilight 6:57 AM MDT 6:29 PM MDT
Nautical Twilight 6:25 AM MDT 7:01 PM MDT
Astronomical Twilight 5:53 AM MDT 7:33 PM MDT
Moon 7:49 AM MDT (10/28) 6:48 PM MDT (10/28)
Length of Visible Light 11h 32m
Length of Day
10h 36m
New Moon, 1% of the Moon is Illuminated
Oct 28
New Moon
Nov 4
First Quarter
Nov 12
Full
Nov 19
Last Quarter
Nov 26
New

Hourly Weather History & Observations

Time (MDT) Temp. Windchill Dew Point Humidity Pressure Visibility Wind Dir Wind Speed Gust Speed Precip Events Conditions
12:09 AM 17.6 °F 8.2 °F 15.8 °F 93% 30.18 in 2.0 mi NNE 6.9 mph - 0.00 in Snow Light Snow
12:26 AM 17.6 °F 9.3 °F 15.8 °F 93% 30.16 in 1.2 mi NE 5.8 mph - 0.00 in Snow Light Snow
12:56 AM 18.0 °F 11.1 °F 15.1 °F 88% 30.28 in 1.2 mi East 4.6 mph - 0.01 in Snow Light Snow
1:03 AM 17.6 °F 10.7 °F 15.8 °F 93% 30.16 in 1.0 mi ENE 4.6 mph - 0.00 in Snow Light Snow
1:08 AM 17.6 °F 10.7 °F 15.8 °F 93% 30.16 in 1.2 mi NE 4.6 mph - 0.01 in Snow Light Snow
1:56 AM 17.1 °F 10.0 °F 15.1 °F 92% 30.27 in 2.0 mi ESE 4.6 mph - 0.01 in Snow Light Snow
2:25 AM 17.6 °F - 15.8 °F 93% 30.13 in 3.0 mi Calm Calm - 0.00 in Snow Light Snow
2:48 AM 15.8 °F 8.6 °F 14.0 °F 93% 30.13 in 7.0 mi ESE 4.6 mph - 0.00 in Snow Light Snow
2:56 AM 16.0 °F 10.4 °F 14.0 °F 92% 30.27 in 8.0 mi SE 3.5 mph - 0.00 in Snow Light Snow
3:56 AM 16.0 °F 8.8 °F 14.0 °F 92% 30.23 in 9.0 mi SE 4.6 mph - 0.00 in Snow Light Snow
4:56 AM 17.1 °F 7.6 °F 14.0 °F 88% 30.21 in 9.0 mi SE 6.9 mph - 0.00 in Snow Light Snow
5:56 AM 16.0 °F 10.4 °F 14.0 °F 92% 30.20 in 9.0 mi SE 3.5 mph - 0.00 in Snow Light Snow
6:29 AM 15.8 °F 8.6 °F 14.0 °F 93% 30.06 in 9.0 mi SSE 4.6 mph - 0.00 in Snow Light Snow
6:56 AM 16.0 °F 8.8 °F 14.0 °F 92% 30.20 in 9.0 mi SSE 4.6 mph - 0.00 in Snow Light Snow
7:06 AM 15.8 °F 7.2 °F 14.0 °F 93% 30.05 in 9.0 mi SSE 5.8 mph - 0.00 in Snow Light Snow
7:28 AM 17.6 °F 9.3 °F 14.0 °F 86% 30.05 in 8.0 mi SE 5.8 mph - 0.00 in Snow Light Snow
7:47 AM 17.6 °F 10.7 °F 14.0 °F 86% 30.05 in 6.0 mi SE 4.6 mph - 0.00 in Snow Light Snow
7:56 AM 17.1 °F 10.0 °F 14.0 °F 88% 30.20 in 6.0 mi SE 4.6 mph - 0.00 in Snow Light Snow
8:15 AM 17.6 °F 10.7 °F 15.8 °F 93% 30.05 in 8.0 mi SE 4.6 mph - 0.00 in Snow Light Snow
8:29 AM 17.6 °F 12.3 °F 15.8 °F 93% 30.06 in 9.0 mi SE 3.5 mph - 0.00 in Snow Light Snow
8:56 AM 19.0 °F 12.3 °F 16.0 °F 88% 30.21 in 10.0 mi SSE 4.6 mph - 0.00 in   Mostly Cloudy
9:56 AM 21.0 °F 14.6 °F 18.0 °F 88% 30.19 in 10.0 mi SSE 4.6 mph - N/A   Mostly Cloudy
10:04 AM 21.2 °F 12.6 °F 17.6 °F 86% 30.06 in 10.0 mi South 6.9 mph - N/A   Scattered Clouds
10:12 AM 21.2 °F 12.6 °F 19.4 °F 93% 30.06 in 10.0 mi South 6.9 mph - N/A   Mostly Cloudy
10:39 AM 21.2 °F 12.6 °F 19.4 °F 93% 30.04 in 10.0 mi South 6.9 mph - N/A   Partly Cloudy
10:56 AM 21.0 °F 12.4 °F 18.0 °F 88% 30.17 in 10.0 mi SSW 6.9 mph - N/A   Partly Cloudy
11:49 AM 24.8 °F 15.3 °F 19.4 °F 80% 30.01 in 10.0 mi South 9.2 mph - N/A   Mostly Cloudy
11:56 AM 24.1 °F 15.2 °F 19.9 °F 84% 30.14 in 10.0 mi SSW 8.1 mph - N/A   Scattered Clouds
12:38 PM 28.4 °F 21.2 °F 21.2 °F 74% 29.99 in 10.0 mi South 6.9 mph - N/A   Mostly Cloudy
12:54 PM 28.4 °F 19.7 °F 21.2 °F 74% 29.98 in 10.0 mi SSW 9.2 mph - N/A   Scattered Clouds
12:56 PM 28.0 °F 18.6 °F 19.9 °F 72% 30.09 in 10.0 mi South 10.4 mph - N/A   Scattered Clouds
1:56 PM 30.0 °F 22.4 °F 21.9 °F 72% 30.05 in 10.0 mi South 8.1 mph - N/A   Scattered Clouds
2:56 PM 30.0 °F 23.2 °F 19.9 °F 66% 30.04 in 10.0 mi South 6.9 mph - N/A   Clear
3:56 PM 28.9 °F 19.8 °F 19.9 °F 69% 30.03 in 10.0 mi South 10.4 mph - N/A   Clear
4:56 PM 28.0 °F 21.7 °F 19.9 °F 72% 30.03 in 10.0 mi SSW 5.8 mph - N/A   Clear
5:56 PM 24.1 °F 17.0 °F 16.0 °F 71% 30.06 in 10.0 mi SE 5.8 mph - N/A   Clear
6:56 PM 21.9 °F 13.4 °F 16.0 °F 78% 30.09 in 10.0 mi SE 6.9 mph - N/A   Partly Cloudy
7:56 PM 21.0 °F 12.4 °F 16.0 °F 81% 30.12 in 10.0 mi SE 6.9 mph - N/A   Clear
8:56 PM 21.0 °F 16.2 °F 16.0 °F 81% 30.12 in 10.0 mi SE 3.5 mph - N/A   Mostly Cloudy
9:56 PM 21.0 °F 16.2 °F 16.0 °F 81% 30.12 in 10.0 mi Variable 3.5 mph - N/A   Overcast
10:56 PM 21.0 °F - 17.1 °F 85% 30.12 in 10.0 mi Calm Calm - N/A   Overcast
11:56 PM 21.0 °F - 17.1 °F 85% 30.10 in 10.0 mi Calm Calm - N/A   Overcast